Regional Weather Roundup
Issued by NWS

Home | Current Version | Previous Version | Text Only | Print | Product List | Glossary Off
Versions: 1 2 3 4 5 6 7 8 9 10 11 12 13 14 15 16 17 18 19 20 21 22 23 24 25 26 27 28 29 30 31 32 33 34 35 36 37 38 39 40 41 42 43 44 45 46 47 48 49 50

000
ASUS44 KMEG 301800
RWRTN
TENNESSEE HOURLY STATE WEATHER ROUNDUP
NATIONAL WEATHER SERVICE MEMPHIS TN
100 PM CDT THU MAR 30 2017

TNZ002-004-019-021-049-052-054-088>092-301900-
WEST TENNESSEE

CITY           SKY/WX    TMP DP  RH WIND       PRES   REMARKS
MEMPHIS INTL   CLOUDY    74  59  59 S21G38    29.65F
NWS MEMPHIS      N/A     73 N/A N/A MISG        N/A
JACKSON        PTSUNNY   73  59  61 S26G36    29.66F
DYERSBURG      CLOUDY    75  58  55 S17G25    29.62F
PARIS          MOSUNNY   73  55  53 S17       29.64F
$$

TNZ008-025-027-028-033-062-065-066-301900-
NORTH MIDDLE TENNESSEE

CITY           SKY/WX    TMP DP  RH WIND       PRES   REMARKS
NASHVILLE      CLOUDY    76  56  49 S18       29.71F
CLARKSVILLE    CLOUDY    75  49  39 SW28G38   29.64F
SMYRNA         CLOUDY    75  57  53 S14G28    29.72F
CROSSVILLE     CLOUDY    73  47  39 S17G28    29.82F
$$

TNZ061-075-076-078-094-096-097-301900-
SOUTH MIDDLE TENNESSEE

CITY           SKY/WX    TMP DP  RH WIND       PRES   REMARKS
TULLAHOMA      SUNNY     75  54  46 S18       29.76F
WINCHESTER     SUNNY     77  57  50 S13       29.78F
MCMINNVILLE    SUNNY     81  54  39 S14       29.75F
COLUMBIA       SUNNY     73  61  64 S15       29.70F
SHELBYVILLE    SUNNY     75  61  60 S22       29.75F
$$

TNZ017-018-042-046-047-301900-
NORTHEAST TENNESSEE

CITY           SKY/WX    TMP DP  RH WIND       PRES   REMARKS
TRI CITIES     PTSUNNY   73  55  53 S13G21    29.93F
$$

TNZ012-013-036-069-073-074-301900-
CENTRAL EAST TENNESSEE

CITY           SKY/WX    TMP DP  RH WIND       PRES   REMARKS
KNOXVILLE      NOT AVBL
OAK RIDGE      MOSUNNY   78  50  37 S14G22    29.83F
GATLINBURG     MOSUNNY   77  48  36 S10       29.84F
$$

TNZ083-085-099-301900-
SOUTHEAST TENNESSEE

CITY           SKY/WX    TMP DP  RH WIND       PRES   REMARKS
CHATTANOOGA    PTSUNNY   79  48  33 S16G28    29.81F
$$

SKY/WX REPORTED AS FAIR MEANS FEW OR NO CLOUDS BELOW
12 THOUSAND FEET.




USA.gov is the U.S. government's official web portal to all federal, state and local government web resources and services.